| time (UTC) | temp C | wind direction | speed KPH | gust KPH | rain 1hr cm | rain 24hr cm | rain mn cm | humidity % | barometer mb |
| 20260507123006 | 5 | 171 | 0.0 | 0.0 | 0.00 | 0.23 | 0.05 | 85 | 1016.8 |
| 20260507121005 | 5 | 167 | 0.0 | 0.0 | 0.00 | 0.23 | 0.05 | 86 | 1016.7 |
| 20260507120006 | 5 | 168 | 0.0 | 0.0 | 0.00 | 0.23 | 0.05 | 87 | 1016.7 |
| 20260507115006 | 5 | 159 | 0.0 | 0.0 | 0.00 | 0.23 | 0.05 | 87 | 1016.6 |
| 20260507114005 | 5 | 168 | 0.0 | 0.0 | 0.00 | 0.23 | 0.05 | 87 | 1016.6 |
| 20260507113006 | 5 | 106 | 0.0 | 0.0 | 0.00 | 0.23 | 0.05 | 87 | 1016.6 |
| 20260507112006 | 5 | 121 | 0.0 | 0.0 | 0.05 | 0.23 | 0.05 | 89 | 1016.4 |
| 20260507111006 | 5 | 184 | 0.0 | 0.0 | 0.05 | 0.25 | 0.05 | 89 | 1016.3 |
| 20260507110006 | 5 | 250 | 0.0 | 0.0 | 0.05 | 0.25 | 0.05 | 89 | 1016.3 |
| 20260507105005 | 5 | 224 | 0.0 | 0.0 | 0.05 | 0.25 | 0.05 | 88 | 1016.3 |
| 20260507103005 | 5 | 261 | 0.0 | 0.0 | 0.05 | 0.28 | 0.05 | 83 | 1016.2 |
| 20260507102007 | 6 | 325 | 0.0 | 0.0 | 0.00 | 0.23 | 0.00 | 80 | 1015.9 |
| 20260507101006 | 6 | 221 | 0.0 | 0.0 | 0.00 | 0.23 | 0.00 | 81 | 1015.5 |
| 20260507100005 | 6 | 144 | 0.0 | 0.0 | 0.00 | 0.23 | 0.00 | 77 | 1015.4 |
| 20260507095005 | 6 | 145 | 0.0 | 0.0 | 0.00 | 0.25 | 0.00 | 78 | 1015.3 |
| 20260507094006 | 6 | 145 | 0.0 | 0.0 | 0.00 | 0.28 | 0.00 | 78 | 1015.3 |
| 20260507092006 | 6 | 152 | 0.0 | 0.0 | 0.00 | 0.30 | 0.00 | 78 | 1015.3 |
| 20260507091005 | 5 | 155 | 0.0 | 0.0 | 0.00 | 0.30 | 0.00 | 80 | 1015.3 |
| 20260507090006 | 5 | 119 | 0.0 | 0.0 | 0.00 | 0.30 | 0.00 | 79 | 1015.1 |
| 20260507085005 | 5 | 119 | 0.0 | 0.0 | 0.00 | 0.30 | 0.00 | 79 | 1015.1 |
| 20260507084006 | 5 | 149 | 0.0 | 0.0 | 0.00 | 0.30 | 0.00 | 80 | 1015.0 |
| 20260507083005 | 5 | 150 | 0.0 | 0.0 | 0.00 | 0.30 | 0.00 | 81 | 1015.0 |
| 20260507081006 | 5 | 151 | 0.0 | 0.0 | 0.00 | 0.30 | 0.00 | 84 | 1015.0 |
| 20260507080005 | 5 | 144 | 0.0 | 0.0 | 0.00 | 0.30 | 0.00 | 85 | 1014.9 |
| 20260507074006 | 4 | 119 | 0.0 | 0.0 | 0.00 | 0.30 | 0.00 | 87 | 1014.8 |
| 20260507073005 | 4 | 110 | 0.0 | 0.0 | 0.00 | 0.30 | 0.00 | 88 | 1014.7 |
| 20260507072006 | 4 | 115 | 0.0 | 0.0 | 0.00 | 0.30 | 0.00 | 89 | 1014.7 |
| 20260507071005 | 4 | 119 | 0.0 | 0.0 | 0.00 | 0.30 | 0.00 | 90 | 1014.7 |
| 20260507070009 | 4 | 162 | 0.0 | 0.0 | 0.00 | 0.30 | 0.00 | 89 | 1014.6 |
| 20260507065006 | 4 | 163 | 0.0 | 0.0 | 0.00 | 0.30 | 0.00 | 90 | 1014.5 |
| 20260507064006 | 4 | 163 | 0.0 | 0.0 | 0.00 | 0.30 | 0.00 | 89 | 1014.4 |
| 20260507063005 | 4 | 163 | 0.0 | 0.0 | 0.00 | 0.30 | 0.00 | 89 | 1014.4 |
| 20260507061005 | 3 | 163 | 0.0 | 0.0 | 0.00 | 0.30 | 0.00 | 90 | 1014.2 |
| 20260507060005 | 3 | 163 | 0.0 | 0.0 | 0.00 | 0.30 | 0.00 | 90 | 1014.1 |
| 20260507055006 | 3 | 163 | 0.0 | 0.0 | 0.00 | 0.30 | 0.00 | 90 | 1014.1 |
| 20260507054006 | 3 | 163 | 0.0 | 0.0 | 0.00 | 0.30 | 0.00 | 90 | 1014.0 |
| 20260507053005 | 3 | 163 | 0.0 | 0.0 | 0.00 | 0.30 | 0.00 | 90 | 1013.9 |
| 20260507052005 | 3 | 163 | 0.0 | 0.0 | 0.00 | 0.30 | 0.00 | 91 | 1013.9 |
| 20260507051005 | 3 | 163 | 0.0 | 0.0 | 0.00 | 0.30 | 0.00 | 91 | 1013.8 |
| 20260507050005 | 3 | 163 | 0.0 | 0.0 | 0.00 | 0.30 | 0.00 | 91 | 1013.8 |
| 20260507045005 | 3 | 163 | 0.0 | 0.0 | 0.00 | 0.30 | 0.00 | 91 | 1013.8 |
| 20260507044005 | 3 | 163 | 0.0 | 0.0 | 0.00 | 0.30 | 0.00 | 91 | 1013.7 |
| 20260507043005 | 3 | 163 | 0.0 | 0.0 | 0.00 | 0.30 | 0.00 | 91 | 1013.7 |
| 20260507042005 | 3 | 163 | 0.0 | 0.0 | 0.00 | 0.30 | 0.00 | 91 | 1013.7 |
| 20260507041005 | 3 | 163 | 0.0 | 0.0 | 0.00 | 0.30 | 0.00 | 92 | 1013.6 |
| 20260507040005 | 3 | 163 | 0.0 | 0.0 | 0.00 | 0.30 | 0.00 | 92 | 1013.6 |
| 20260507035005 | 2 | 163 | 0.0 | 0.0 | 0.00 | 0.30 | 0.00 | 92 | 1013.6 |
| 20260507034005 | 2 | 163 | 0.0 | 0.0 | 0.00 | 0.30 | 0.00 | 92 | 1013.6 |
| 20260507033005 | 2 | 163 | 0.0 | 0.0 | 0.00 | 0.30 | 0.00 | 92 | 1013.5 |
| 20260507032005 | 2 | 163 | 0.0 | 0.0 | 0.00 | 0.30 | 0.00 | 92 | 1013.4 |
| 20260507031006 | 2 | 163 | 0.0 | 0.0 | 0.00 | 0.30 | 0.00 | 91 | 1013.4 |
| 20260507030005 | 2 | 163 | 0.0 | 0.0 | 0.00 | 0.30 | 0.00 | 92 | 1013.4 |
| 20260507025005 | 2 | 163 | 0.0 | 0.0 | 0.00 | 0.30 | 0.00 | 92 | 1013.4 |
| 20260507023005 | 2 | 163 | 0.0 | 0.0 | 0.00 | 0.30 | 0.00 | 92 | 1013.2 |
| 20260507022005 | 2 | 163 | 0.0 | 0.0 | 0.00 | 0.30 | 0.00 | 92 | 1013.3 |
| 20260507021005 | 1 | 163 | 0.0 | 0.0 | 0.00 | 0.30 | 0.00 | 92 | 1013.2 |
| 20260507020005 | 2 | 163 | 0.0 | 0.0 | 0.00 | 0.30 | 0.00 | 91 | 1013.2 |
| 20260507015005 | 2 | 163 | 0.0 | 0.0 | 0.00 | 0.30 | 0.00 | 91 | 1013.0 |
| 20260507014005 | 2 | 163 | 0.0 | 0.0 | 0.00 | 0.33 | 0.00 | 91 | 1013.0 |
| 20260507012005 | 2 | 163 | 0.0 | 0.0 | 0.00 | 0.33 | 0.00 | 91 | 1012.9 |
| 20260507011005 | 2 | 163 | 0.0 | 0.0 | 0.00 | 0.33 | 0.00 | 92 | 1012.9 |
| 20260507010005 | 2 | 163 | 0.0 | 0.0 | 0.00 | 0.33 | 0.00 | 91 | 1012.9 |
| 20260507005005 | 2 | 163 | 0.0 | 0.0 | 0.00 | 0.33 | 0.00 | 91 | 1012.9 |
| 20260507004005 | 2 | 163 | 0.0 | 0.0 | 0.00 | 0.33 | 0.00 | 91 | 1012.8 |
| 20260507002005 | 2 | 163 | 0.0 | 0.0 | 0.00 | 0.33 | 0.00 | 92 | 1012.7 |
| 20260507001005 | 2 | 163 | 0.0 | 0.0 | 0.00 | 0.33 | 0.00 | 92 | 1012.7 |
| 20260507000005 | 2 | 163 | 0.0 | 0.0 | 0.00 | 0.33 | 0.00 | 92 | 1012.6 |
| 20260506235005 | 2 | 163 | 0.0 | 0.0 | 0.00 | 0.33 | 0.00 | 92 | 1012.6 |
| 20260506234005 | 2 | 163 | 0.0 | 0.0 | 0.00 | 0.33 | 0.00 | 91 | 1012.5 |
| 20260506233004 | 2 | 163 | 0.0 | 0.0 | 0.00 | 0.33 | 0.00 | 91 | 1012.4 |
| 20260506231005 | 2 | 163 | 0.0 | 0.0 | 0.00 | 0.33 | 0.00 | 91 | 1012.3 |
| 20260506230005 | 2 | 163 | 0.0 | 0.0 | 0.00 | 0.33 | 0.00 | 91 | 1012.3 |
| 20260506225005 | 2 | 163 | 0.0 | 0.0 | 0.00 | 0.33 | 0.00 | 91 | 1012.3 |
| 20260506224005 | 2 | 163 | 0.0 | 0.0 | 0.00 | 0.33 | 0.00 | 91 | 1012.3 |
| 20260506223005 | 2 | 163 | 0.0 | 0.0 | 0.00 | 0.33 | 0.00 | 91 | 1012.3 |
| 20260506222005 | 2 | 163 | 0.0 | 0.0 | 0.00 | 0.36 | 0.00 | 91 | 1012.3 |
| 20260506221005 | 2 | 163 | 0.0 | 0.0 | 0.00 | 0.41 | 0.00 | 91 | 1012.3 |
| 20260506220005 | 2 | 163 | 0.0 | 0.0 | 0.00 | 0.43 | 0.00 | 91 | 1012.3 |
| 20260506215006 | 2 | 163 | 0.0 | 0.0 | 0.00 | 0.43 | 0.43 | 91 | 1012.2 |
| 20260506213005 | 2 | 163 | 0.0 | 0.0 | 0.00 | 0.56 | 0.43 | 90 | 1012.1 |
| 20260506212005 | 2 | 163 | 0.0 | 0.0 | 0.00 | 0.66 | 0.43 | 89 | 1012.0 |
| 20260506211005 | 3 | 163 | 0.0 | 0.0 | 0.00 | 0.71 | 0.43 | 89 | 1012.0 |
| 20260506210005 | 3 | 163 | 0.0 | 0.0 | 0.00 | 0.71 | 0.43 | 90 | 1012.0 |
| 20260506205005 | 3 | 163 | 0.0 | 0.0 | 0.00 | 0.74 | 0.43 | 91 | 1012.0 |
| 20260506204005 | 3 | 163 | 0.0 | 0.0 | 0.03 | 0.76 | 0.43 | 91 | 1011.9 |
| 20260506202004 | 3 | 163 | 0.0 | 0.0 | 0.03 | 0.79 | 0.43 | 90 | 1011.7 |
| 20260506201005 | 3 | 163 | 0.0 | 0.0 | 0.03 | 0.79 | 0.43 | 90 | 1011.7 |
| 20260506200005 | 3 | 163 | 0.0 | 0.0 | 0.03 | 0.79 | 0.43 | 90 | 1011.8 |
| 20260506195004 | 3 | 163 | 0.0 | 0.0 | 0.03 | 0.79 | 0.43 | 91 | 1011.8 |
| 20260506194005 | 3 | 163 | 0.0 | 0.0 | 0.00 | 0.76 | 0.41 | 91 | 1011.6 |
| 20260506193004 | 3 | 163 | 0.0 | 0.0 | 0.00 | 0.76 | 0.41 | 91 | 1011.6 |
| 20260506192005 | 3 | 163 | 0.0 | 0.0 | 0.00 | 0.76 | 0.41 | 91 | 1011.5 |
| 20260506191005 | 3 | 163 | 0.0 | 0.0 | 0.00 | 0.76 | 0.41 | 91 | 1011.5 |
| 20260506190005 | 3 | 163 | 0.0 | 0.0 | 0.00 | 0.76 | 0.41 | 91 | 1011.4 |
| 20260506185004 | 3 | 163 | 0.0 | 0.0 | 0.00 | 0.76 | 0.41 | 91 | 1011.5 |
| 20260506184004 | 3 | 163 | 0.0 | 0.0 | 0.00 | 0.76 | 0.41 | 91 | 1011.4 |
| 20260506183005 | 3 | 163 | 0.0 | 0.0 | 0.00 | 0.79 | 0.41 | 92 | 1011.3 |
| 20260506182005 | 3 | 163 | 0.0 | 0.0 | 0.00 | 0.79 | 0.41 | 92 | 1011.3 |
| 20260506181006 | 2 | 163 | 0.0 | 0.0 | 0.03 | 0.79 | 0.41 | 92 | 1011.3 |
| 20260506180006 | 2 | 163 | 0.0 | 0.0 | 0.03 | 0.79 | 0.41 | 92 | 1011.3 |
| 20260506174006 | 2 | 163 | 0.0 | 0.0 | 0.03 | 0.79 | 0.41 | 91 | 1011.2 |
| 20260506172006 | 2 | 208 | 0.0 | 0.0 | 0.03 | 0.79 | 0.41 | 91 | 1011.0 |
| 20260506171006 | 3 | 220 | 0.0 | 0.0 | 0.05 | 0.79 | 0.38 | 91 | 1011.0 |
| 20260506170005 | 3 | 210 | 0.0 | 0.0 | 0.08 | 0.79 | 0.38 | 91 | 1011.0 |
| 20260506165006 | 3 | 213 | 0.0 | 0.0 | 0.08 | 0.81 | 0.38 | 91 | 1011.0 |
| 20260506164005 | 3 | 201 | 0.0 | 0.0 | 0.08 | 0.81 | 0.38 | 90 | 1011.0 |
| 20260506163006 | 3 | 244 | 0.0 | 0.0 | 0.08 | 0.81 | 0.38 | 89 | 1010.8 |
| 20260506162006 | 3 | 244 | 0.0 | 0.0 | 0.08 | 0.81 | 0.38 | 88 | 1010.6 |
| 20260506161005 | 3 | 242 | 0.0 | 0.0 | 0.03 | 0.76 | 0.33 | 88 | 1010.6 |
| 20260506160006 | 3 | 109 | 0.0 | 0.0 | 0.00 | 0.74 | 0.30 | 87 | 1010.6 |
| 20260506155006 | 4 | 109 | 0.0 | 0.0 | 0.00 | 0.76 | 0.30 | 87 | 1010.5 |
| 20260506153006 | 3 | 240 | 0.0 | 0.0 | 0.00 | 0.76 | 0.30 | 87 | 1010.5 |
| 20260506152005 | 4 | 237 | 0.0 | 0.0 | 0.00 | 0.76 | 0.30 | 87 | 1010.4 |
| 20260506151005 | 4 | 248 | 0.0 | 0.0 | 0.00 | 0.79 | 0.30 | 86 | 1010.3 |
| 20260506145006 | 5 | 269 | 0.0 | 0.0 | 0.00 | 0.84 | 0.30 | 85 | 1010.1 |
| 20260506144006 | 5 | 229 | 0.0 | 0.0 | 0.00 | 0.84 | 0.30 | 86 | 1010.2 |
| 20260506143005 | 5 | 229 | 0.0 | 0.0 | 0.00 | 0.84 | 0.30 | 86 | 1010.1 |
| 20260506140006 | 5 | 173 | 0.0 | 0.0 | 0.03 | 0.84 | 0.30 | 89 | 1010.0 |
| 20260506135006 | 5 | 185 | 0.0 | 0.0 | 0.03 | 0.84 | 0.30 | 90 | 1009.9 |
| 20260506134006 | 5 | 202 | 0.0 | 0.0 | 0.05 | 0.86 | 0.30 | 91 | 1010.0 |
| 20260506133005 | 4 | 234 | 0.0 | 0.0 | 0.05 | 0.91 | 0.30 | 91 | 1009.8 |
| 20260506132005 | 4 | 237 | 0.0 | 0.0 | 0.05 | 0.91 | 0.30 | 91 | 1009.9 |
| 20260506131006 | 3 | 237 | 0.0 | 0.0 | 0.05 | 0.91 | 0.30 | 91 | 1009.8 |
| 20260506130006 | 4 | 241 | 0.0 | 0.0 | 0.05 | 0.89 | 0.28 | 90 | 1009.7 |
| 20260506125006 | 4 | 294 | 0.0 | 0.0 | 0.05 | 0.89 | 0.28 | 89 | 1009.7 |
| 20260506124005 | 5 | 193 | 0.0 | 0.0 | 0.03 | 0.89 | 0.25 | 90 | 1009.7 |